Cosmos 1953 - Orbit

View from above orbital plane
View from above orbital plane
View from above satellite
View from above satellite

Ground track
Ground track

The orbit data is extracted from the following two-line orbital elements,

1 19210U 88050A   13138.77725011  .00003164  00000-0  25395-3 0  1027
2 19210 082.5219 033.4938 0013706 290.7772 069.1983 14.99701587353944
Epoch (UTC): 18 May 2013 18:39:14
Eccentricity: 0.0013706
inclination: 82.5219°
perigee height: 558 km
apogee height: 577 km
right ascension of ascending node: 33.4938°
argument of perigee: 290.7772°
revolutions per day: 14.99701587
mean anomaly at epoch: 69.1983°
orbit number at epoch: 35394

The dashed part of the orbit path shows where the satellite is in the earth's shadow,  

Developed and maintained by Chris Peat, Heavens-Above GmbH. Please read the updated FAQ before sending e-mail. Imprint. DLR